Home > Weather > Passau > Past weeks

Flag for Germany Past Weather in Passau, Bavaria, Germany — Yesterday and Last 2 Weeks

Now
61 °F

Cool.


Feels Like: 61 °F
Forecast: 55 / 68 °F
Wind: 1 mph from West

Location: Rohrbach

Current Time: Jun 26, 2016 at 11:05:39 PM

Latest Report: Jun 26, 2016 at 10:00 PM


Visibility: N/A

Pressure: 30.05 "Hg

Humidity: 89%

Dew Point: 58 °F

Location of PassauLocation

Past Weather in Passau — Graph

°F

Passau Temperature Yesterday

Maximum temperature yesterday: 88 °F (at 6:00 PM)
Minimum temperature yesterday: 60 °F (at 11:00 PM)
Average temperature yesterday: 74 °F

High & Low Weather Summary for the Past Weeks

 TemperatureHumidityPressure
High88 °F (Jun 25, 6:00 PM)99% (Jun 21, 4:00 AM)30.29 "Hg (Jun 21, 4:00 AM)
Low49 °F (Jun 18, 6:00 AM)30% (Jun 24, 5:00 PM)29.44 "Hg (Jun 16, 5:00 PM)
Average63 °F77%29.92 "Hg
* Reported Jun 11 10:00 PM — Jun 26 10:00 PM, Passau, Weather by CustomWeather, © 2016

Note: Actual official high and low records may vary slightly from our data, if they occured in-between our weather recording intervals... More about our weather records

Advertising

Passau Weather History for the Previous 24 Hours

Scroll right to see more
 ConditionsComfort  
Time TempWeatherWind HumidityBarometerVisibility
10:00 PM
Sun, Jun 26
61 °FCool.1 mph89%30.05 "HgN/A
9:00 PM63 °FMild.No wind85%30.03 "HgN/A
8:00 PM64 °FMild.2 mph82%30.01 "HgN/A
7:00 PM66 °FMild.2 mph76%30.00 "HgN/A
6:00 PM67 °FMild.2 mph71%29.99 "HgN/A
5:00 PM69 °FMild.1 mph64%29.99 "HgN/A
4:00 PM69 °FMild.2 mph63%30.00 "HgN/A
3:00 PM68 °FMild.2 mph65%30.01 "HgN/A
2:00 PM68 °FMild.2 mph68%30.03 "HgN/A
1:00 PM66 °FMild.No wind69%30.05 "HgN/A
12:00 PM64 °FMild.1 mph77%30.06 "HgN/A
11:00 AM62 °FCool.2 mph79%30.06 "HgN/A
10:00 AM62 °FCool.1 mph83%30.06 "HgN/A
9:00 AM60 °FCool.2 mph87%30.07 "HgN/A
8:00 AM59 °FCool.2 mph91%30.06 "HgN/A
7:00 AM59 °FCool.2 mph92%30.06 "HgN/A
6:00 AM59 °FCool.3 mph93%30.04 "HgN/A
5:00 AM60 °FCool.2 mph93%30.02 "HgN/A
4:00 AMN/APassing clouds.20 mphN/AN/A2 mi
3:00 AM61 °FCool.2 mph95%29.99 "HgN/A
2:00 AM61 °FCool.2 mph94%29.99 "HgN/A
1:00 AM61 °FCool.1 mph96%29.98 "HgN/A
12:00 AM61 °FSprinkles. Overcast.3 mph95%29.96 "HgN/A
11:00 PM
Sat, Jun 25
60 °FCool.5 mph95%29.95 "HgN/A
Weather by CustomWeather, © 2016

See weather overviewHow to use our weather pages